Location: Crescent
(42.8242°N, 73.7329°W)
Time: 15:25:07
(UTC+00:00)

Tiros 1 - Pass Details

Date: 26 February 2026
Orbit: 618 x 649 km, 48.4° (Epoch: 6 March)

Event Time Altitude Azimuth Distance (km) Brightness Sun altitude
Exits shadow 09:22:41 23° 168° (SSE) 1,357 8.8 -25.0°
Maximum altitude 09:24:05 27° 138° (SE) 1,225 8.8 -24.8°
Drops below altitude 10° 09:27:58 10° 81° (E) 2,013 10.8 -24.1°
Sets 09:30:33 0° 70° (ENE) 2,918 11.9 -23.6°
